{"data":{"norad_id":40972,"intl_designator":"2015-058J","name":"SNAP-3 EDDIE","alt_names":[],"object_type":"PAYLOAD","status":"ACTIVE","operator":null,"country":"US","launch_date":"2015-10-08","launch_site_code":"AFWTR","launch_vehicle":null,"mission":null,"orbit_class":"UNKNOWN","rcs_meters":null,"size_class":null,"mass_kg":null,"dimensions":null,"purposes":["tech_demo"],"wikipedia_slug":null,"has_3d_model":false,"image_url":null,"decayed_at":null,"tle_current":{"epoch":"2026-09-16T16:08:14.681760Z","epoch_age_seconds":348866,"freshness":"STALE","line1":"1 40972U 15058J   26259.67239215  .11527157  76591-5  12025-2 0  9994","line2":"2 40972  64.7203 129.6489 0013970 261.9375  98.0223 16.36947050133460","mean_motion":16.3694705,"eccentricity":0.001397,"inclination_deg":64.7203,"raan_deg":129.6489,"arg_perigee_deg":261.9375,"mean_anomaly_deg":98.0223,"bstar":0.0012025,"rev_number":13346,"period_min":87.96863649316,"perigee_km":164.78314740824,"apogee_km":183.08964047091,"semimajor_km":6552.0733939396,"source":"CELESTRAK","updated_at":"2026-09-17T09:00:45.715610Z"}}}